RBSP A (38752 NORAD) Tracking and Keplerian Element Data

This shows tracking and keplerian element data for the satellite.

Feedback or suggestion? Click here.




ElementValue
Catalog38752
NameRBSP A
Epoch Orbit5749
Epoch Day198.90734131
Epoch Year2018
RAAN8.8643
Inclination10.1541
Eccentricity0.6825856
Argument of Perigee132.451
Mean Anonmoly310.0218
Mean Motion2.68136725
Decay Rate-9E-08
L11 38752U 12046A 18198.90734131 -.00000009 00000-0 95138-3 0 9992
L22 38752 10.1541 8.8643 6825856 132.4510 310.0218 2.68136725 57494

Live tracking and technical data element details for RBSP A (NORAD 38752). RBSP A can be tracked NOW for your location showing map with azimuth and elevation plus other details from your city location.

Track the satellite on the map from your city or location and see movement details for azimuth, elevation, latitude, longitude, range, height, and movement on the map or in text.







IsCatalogInMostPopularTable: catalog: 38752, numindb: 55
Update: records affected: 1



GetName: 38752 RBSP A

Hit Count: updated at: Fri, 20 Jul 2018 20:33:54 GMT